User: anonymous
Location: Melbourne
(37.8170°S, 144.9670°E)
Time: 12:35:01
(UTC+10:00)
Language:

Cosmos 962 Rocket - Orbit

View from above orbital plane
View from above orbital plane
View from above satellite
View from above satellite

Ground track
Ground track

The orbit data is extracted from the following two-line orbital elements,

1 10461U 77107B   14208.79157637  .00000015  00000-0 -50919-6 0  6101
2 10461 082.9464 076.8760 0032808 219.3353 194.2935 13.76696554845550
Epoch (UTC): 27 July 2014 18:59:52
Eccentricity: 0.0032808
inclination: 82.9464°
perigee height: 951 km
apogee height: 1000 km
right ascension of ascending node: 76.8760°
argument of perigee: 219.3353°
revolutions per day: 13.76696554
mean anomaly at epoch: 194.2935°
orbit number at epoch: 84555

The dashed part of the orbit path shows where the satellite is in the earth's shadow,  

DLR